This demonstration page uses our WeatherBlox Daily Observations layout. Learn more.

Left ArrowRight Arrow

34.74481, -87.66753

Hourly Observations for December 10, 2019

Temp ( °F °C ) Dew Point ( °F °C ) Humidity (%) Winds ( mph kmh ) Pressure ( in mb ) Visibility ( mi km ) Precip ( " mm )
12:53 am 00:53 Cloudy 63 17.2 59 15 87 87 Calm 29.88 1012 10 16 0.00 0.00
1:49 am 01:49 Cloudy 63 17 59 15 88 88 WNW 8 13 29.89 1012 10 16 0.00 0.00
1:53 am 01:53 Cloudy 63 17.2 59 15 87 87 NW 9 15 29.89 1012 10 16 0.00 0.00
2:43 am 02:43 Cloudy with Light Rain 61 16.1 57 13.9 87 87 NW 14 22 29.93 1013 9 14 0.02 0.51
2:53 am 02:53 Cloudy with Rain 60 15.6 56 13.3 86 86 NW 9 15 29.92 1013 6 10 0.04 1.02
3:06 am 03:06 Cloudy with Light Rain 59 15 54 12.2 83 83 NNW 9 15 29.93 1013 10 16 0.01 0.25
3:16 am 03:16 Cloudy with Light Rain 58 14.4 53 11.7 84 84 NNW 9 15 29.95 1014 10 16 0.01 0.25
3:53 am 03:53 Cloudy 56 13.3 52 11.1 87 87 NW 8 13 29.97 1015 10 16 0.02 0.51
4:11 am 04:11 Cloudy 56 13.3 52 11.1 87 87 NW 10 17 29.99 1016 10 16 0.00 0.00
4:38 am 04:38 Cloudy 55 12.8 44 6.7 67 67 NNW 12 19 30.01 1016 10 16 0.00 0.00
4:53 am 04:53 Cloudy 55 12.8 49 9.4 80 80 NW 10 17 30.00 1016 10 16 0.00 0.00
5:53 am 05:53 Cloudy 53 11.7 47 8.3 80 80 NNW 10 17 30.04 1017 10 16 0.00 0.00
6:43 am 06:43 Cloudy with Light Rain 50 10 45 7.2 83 83 NW 10 17 30.11 1020 10 16 0.00 0.00
6:53 am 06:53 Cloudy with Light Rain 49 9.4 44 6.7 83 83 NNW 9 15 30.08 1019 9 14 0.01 0.25
7:18 am 07:18 Cloudy 48 8.9 44 6.7 86 86 NW 12 19 30.14 1021 10 16 0.00 0.00
7:33 am 07:33 Cloudy with Light Rain 48 8.9 42 5.6 80 80 NNW 9 15 30.13 1020 10 16 0.00 0.00
7:48 am 07:48 Cloudy 46 8 36 2 66 66 NNW 9 15 30.14 1021 10 16 0.00 0.00
7:53 am 07:53 Cloudy 47 8.3 36 2.2 66 66 NNW 9 15 30.11 1020 10 16 0.00 0.00
7:59 am 07:59 Cloudy with Light Rain 47 8.3 37 2.8 69 69 NNW 9 15 30.15 1021 8 13 0.01 0.25
8:06 am 08:06 Cloudy with Rain 47 8.3 38 3.3 71 71 NNW 10 17 30.16 1021 7 11 0.02 0.51
8:42 am 08:42 Cloudy with Light Rain 45 7.2 44 6.7 97 97 NNW 8 13 30.19 1022 10 16 0.05 1.27
8:53 am 08:53 Cloudy with Light Rain 44 6.7 42 5.6 93 93 N 9 15 30.16 1022 8 13 0.06 1.52
9:18 am 09:18 Cloudy 42 5.6 39 3.9 89 89 NNW 12 19 30.22 1023 10 16 0.01 0.25
9:53 am 09:53 Cloudy with Rain 40 4.4 37 2.8 89 89 N 8 13 30.22 1023 6 10 0.02 0.51
10:04 am 10:04 Cloudy with Heavy Rain 40 4.4 37 2.8 89 89 NNW 10 17 30.26 1025 3 5 0.04 1.02
10:13 am 10:13 Cloudy with Rain 40 4.4 36 2.2 86 86 NNW 9 15 30.28 1025 3 4 0.08 2.03
10:20 am 10:20 Cloudy with Rain 40 4.4 37 2.8 89 89 NNW 8 13 30.29 1026 3 5 0.09 2.29
10:51 am 10:51 Cloudy with Heavy Rain 37 3 36 2 93 93 NNW 10 17 30.30 1026 4 6 0.15 3.81
10:53 am 10:53 Cloudy with Heavy Rain 38 3.3 36 2.2 93 93 NNW 12 19 30.28 1025 4 6 0.16 4.06
11:51 am 11:51 Cloudy 36 2 34 1 93 93 NNE 16 26 30.27 1025 10 16 0.06 1.52
11:53 am 11:53 Cloudy 36 2.2 33 0.6 89 89 NNE 14 22 30.24 1024 10 16 0.06 1.52
12:53 pm 12:53 Cloudy with Light Snow 35 1.7 31 -0.6 85 85 N 6 9 30.29 1026 4 6 0.01 0.25
1:05 pm 13:05 Cloudy with Light Snow 35 1.7 32 0 89 89 N 8 13 30.32 1027 2 3 0.00 0.00
1:15 pm 13:15 Cloudy with Light Snow 35 1.7 32 0 89 89 N 7 11 30.31 1026 2 3 0.00 0.00
1:37 pm 13:37 Cloudy with Light Snow 35 1.7 31 -0.6 85 85 NE 10 17 30.29 1026 3 5 0.01 0.25
1:45 pm 13:45 Cloudy 35 1.7 31 -0.6 85 85 NE 15 24 30.28 1025 8 13 0.01 0.25
1:53 pm 13:53 Cloudy 35 1.7 31 -0.6 85 85 ENE 6 9 30.28 1026 10 16 0.01 0.25
2:53 pm 14:53 Cloudy 36 2.2 31 -0.6 82 82 N 9 15 30.29 1026 10 16 0.00 0.00
3:13 pm 15:13 Cloudy with Light Snow 36 2.2 31 -0.6 82 82 NNE 7 11 30.33 1027 3 4 0.00 0.00
3:30 pm 15:30 Cloudy with Light Snow 35 1.7 31 -0.6 85 85 NNE 8 13 30.37 1028 4 6 0.01 0.25
3:44 pm 15:44 Cloudy with Light Snow 35 1.7 31 -0.6 85 85 NNE 8 13 30.37 1028 3 4 0.01 0.25
3:53 pm 15:53 Cloudy with Light Snow 35 1.7 30 -1.1 82 82 NE 12 19 30.33 1027 3 4 0.01 0.25
3:58 pm 15:58 Cloudy with Light Snow 34 1.1 30 -1.1 85 85 NE 9 15 30.37 1028 2 3 0.00 0.00
4:12 pm 16:12 Cloudy with Light Snow 34 1.1 30 -1.1 85 85 NNE 7 11 30.37 1028 1 1 0.00 0.00
4:19 pm 16:19 Cloudy with Light Snow 34 1.1 31 -0.6 89 89 NE 8 13 30.37 1028 2 2 0.00 0.00
4:24 pm 16:24 Cloudy with Light Snow 34 1.1 30 -1.1 85 85 NNE 7 11 30.37 1028 2 3 0.00 0.00
4:33 pm 16:33 Cloudy with Light Snow 34 1.1 31 -0.6 89 89 N 6 9 30.36 1028 2 3 0.00 0.00
4:44 pm 16:44 Cloudy with Light Snow 34 1.1 32 0 92 92 NNE 7 11 30.36 1028 4 6 0.00 0.00
4:53 pm 16:53 Cloudy with Light Snow 34 1.1 32 0 92 92 NE 7 11 30.32 1027 5 8 0.00 0.00
5:43 pm 17:43 Cloudy 35 1.7 32 0 89 89 VRB 3 6 30.38 1029 10 16 0.00 0.00
5:53 pm 17:53 Cloudy 35 1.7 32 0 89 89 VRB 3 6 30.35 1028 10 16 0.00 0.00
6:01 pm 18:01 Cloudy 35 1.7 32 0 89 89 E 6 9 30.37 1028 10 16 0.00 0.00
6:17 pm 18:17 Cloudy 35 1.7 32 0 89 89 VRB 3 6 30.41 1030 10 16 0.00 0.00
6:30 pm 18:30 Cloudy with Light Snow 35 1.7 32 0 89 89 N 3 6 30.40 1029 8 13 0.00 0.00
6:53 pm 18:53 Cloudy with Light Snow 35 1.7 32 0 89 89 Calm 30.38 1029 4 6 0.00 0.00
7:00 pm 19:00 Cloudy with Light Snow 35 1.7 32 0 89 89 N 6 9 30.40 1029 3 5 0.00 0.00
7:07 pm 19:07 Cloudy with Light Snow 35 1.7 32 0 89 89 NNE 6 9 30.39 1029 2 3 0.00 0.00
7:45 pm 19:45 Cloudy with Light Snow 34 1.1 33 0.6 97 97 E 3 6 30.40 1029 3 5 0.00 0.00
7:53 pm 19:53 Cloudy with Light Snow 34 1.1 33 0.6 97 97 N 3 6 30.38 1029 7 11 0.00 0.00
8:18 pm 20:18 Cloudy 35 1.7 33 0.6 93 93 NNW 5 7 30.44 1031 10 16 0.00 0.00
8:46 pm 20:46 Cloudy 35 1.7 32 0 89 89 N 5 7 30.42 1030 10 16 0.00 0.00
8:53 pm 20:53 Cloudy 35 1.7 32 0 89 89 N 6 9 30.40 1030 10 16 0.00 0.00
9:53 pm 21:53 Clear 35 1.7 31 -0.6 85 85 NNW 6 9 30.43 1031 10 16 0.00 0.00
10:53 pm 22:53 Clear 35 1.7 31 -0.6 85 85 NNW 3 6 30.43 1031 10 16 0.00 0.00
11:53 pm 23:53 Clear 34 1.1 31 -0.6 89 89 N 3 6 30.44 1031 10 16 0.00 0.00

Powered by AerisWeather